GW2049 Weather Reports


time (UTC)temp
C
wind
direction
speed
KPH
gust
KPH
rain 1hr
cm
rain 24hr
cm
rain mn
cm
humidity
%
barometer
mb
20260506045040 9 243 0.0 0.0 0.00 0.00 0.00 99 1010.1
20260506044538 9 236 0.0 0.0 0.00 0.00 0.00 99 1009.7
20260506044035 9 275 1.6 1.6 0.00 0.00 0.00 99 1009.7
20260506043532 9 265 1.6 1.6 0.00 0.00 0.00 99 1009.7
20260506043030 9 294 0.0 1.6 0.00 0.00 0.00 99 1009.7
20260506042529 9 255 1.6 3.2 0.00 0.00 0.00 99 1009.7
20260506042027 9 249 3.2 3.2 0.00 0.00 0.00 99 1009.4
20260506041525 9 329 1.6 3.2 0.00 0.00 0.00 99 1009.4
20260506041021 9 245 3.2 3.2 0.00 0.00 0.00 99 1009.7
20260506040519 9 343 4.8 8.0 0.00 0.00 0.00 99 1009.4
20260506040015 9 286 3.2 4.8 0.00 0.38 0.38 99 1008.6
20260506035512 9 342 4.8 4.8 0.00 0.38 0.38 99 1009.4
20260506035009 9 268 1.6 1.6 0.00 0.38 0.38 99 1009.4
20260506034507 10 327 6.4 9.7 0.00 0.38 0.38 99 1009.4
20260506034004 10 301 6.4 9.7 0.00 0.38 0.38 99 1009.4
20260506033501 10 339 4.8 8.0 0.00 0.38 0.38 99 1009.0
20260506032957 10 309 4.8 4.8 0.00 0.38 0.38 99 1009.4
20260506032455 10 334 3.2 4.8 0.00 0.38 0.38 99 1009.0
20260506031951 10 328 3.2 3.2 0.00 0.38 0.38 99 1009.0
20260506031449 10 338 6.4 9.7 0.00 0.38 0.38 99 1009.0
20260506030946 10 291 3.2 3.2 0.00 0.38 0.38 99 1009.0
20260506030444 10 340 4.8 4.8 0.00 0.38 0.38 99 1009.4
20260506025940 10 318 4.8 4.8 0.00 0.38 0.38 99 1009.0
20260506025437 11 336 3.2 4.8 0.00 0.38 0.38 99 1009.0
20260506024934 11 331 3.2 3.2 0.00 0.38 0.38 99 1009.0
20260506024431 11 260 0.0 0.0 0.00 0.38 0.38 99 1009.0
20260506023926 11 244 0.0 0.0 0.00 0.38 0.38 99 1009.0
20260506023424 11 244 0.0 0.0 0.00 0.38 0.38 99 1009.0
20260506022920 11 247 0.0 0.0 0.00 0.38 0.38 99 1009.0
20260506022418 11 243 0.0 0.0 0.00 0.38 0.38 99 1009.0
20260506021916 11 237 1.6 1.6 0.13 0.38 0.38 99 1009.0
20260506021413 11 249 0.0 0.0 0.13 0.38 0.38 99 1009.4
20260506020910 11 242 0.0 0.0 0.18 0.36 0.36 99 1009.4
20260506020408 12 239 0.0 0.0 0.18 0.36 0.36 99 1009.7
20260506015905 11 239 0.0 0.0 0.00 0.33 0.33 99 1009.4
20260506015402 11 247 0.0 0.0 0.00 0.33 0.33 99 1009.7
20260506014859 11 245 0.0 0.0 0.00 0.33 0.33 99 1009.7
20260506014356 12 249 0.0 0.0 0.00 0.33 0.33 99 1010.1
20260506013852 11 247 0.0 0.0 0.00 0.33 0.33 99 1009.7
20260506013350 11 246 0.0 0.0 0.00 0.33 0.33 99 1009.7
20260506012846 11 238 0.0 0.0 0.00 0.33 0.33 99 1009.4
20260506012343 11 235 0.0 1.6 0.00 0.33 0.33 99 1009.4
20260506011840 12 246 0.0 1.6 0.00 0.33 0.33 99 1009.4
20260506011337 12 241 0.0 0.0 0.00 0.33 0.33 99 1009.4
20260506010834 12 241 0.0 0.0 0.00 0.33 0.33 99 1009.4
20260506010332 11 240 1.6 1.6 0.00 0.33 0.33 99 1009.0
20260506005829 11 278 0.0 1.6 0.00 0.33 0.33 99 1009.4
20260506005326 12 259 0.0 1.6 0.00 0.33 0.33 99 1009.4
20260506004822 12 265 0.0 0.0 0.00 0.33 0.33 98 1009.4
20260506004320 12 259 1.6 1.6 0.00 0.33 0.33 98 1009.4
20260506003815 12 284 0.0 1.6 0.00 0.33 0.33 97 1009.0
20260506003312 12 245 0.0 0.0 0.13 0.33 0.33 97 1009.4
20260506002808 12 264 0.0 0.0 0.30 0.33 0.33 96 1009.4
20260506002306 12 244 1.6 3.2 0.36 0.30 0.30 95 1009.4
20260506001801 12 252 1.6 1.6 0.30 0.28 0.28 94 1009.0
20260506001258 12 326 4.8 4.8 0.30 0.25 0.25 93 1009.0
20260506000755 12 247 1.6 1.6 0.18 0.23 0.23 93 1009.0
20260506000254 12 245 0.0 0.0 0.00 0.20 0.20 93 1009.0
20260505235749 13 24 4.8 4.8 0.00 0.20 0.20 94 1008.6
20260505235247 13 286 3.2 3.2 0.00 0.20 0.20 93 1008.6
20260505234743 13 243 3.2 3.2 0.00 0.20 0.20 93 1008.3
20260505234241 13 245 1.6 3.2 0.00 0.20 0.20 93 1008.6
20260505233737 13 340 8.0 11.3 0.00 0.20 0.20 93 1008.3
20260505233236 13 270 4.8 4.8 0.00 0.20 0.20 94 1008.3
20260505232732 13 307 1.6 1.6 0.00 0.20 0.20 95 1008.3
20260505232230 13 267 1.6 1.6 0.00 0.20 0.20 96 1008.6
20260505231726 13 328 8.0 8.0 0.00 0.20 0.20 95 1008.3
20260505231226 13 351 4.8 4.8 0.00 0.20 0.20 94 1008.3
20260505230723 14 289 1.6 1.6 0.00 0.20 0.20 93 1008.3
20260505230219 14 337 3.2 4.8 0.43 0.20 0.20 91 1007.9
20260505225716 15 325 8.0 11.3 0.48 0.18 0.18 88 1008.3
20260505225213 16 332 6.4 9.7 0.18 0.13 0.13 84 1008.3
20260505224708 17 315 14.5 20.9 0.00 0.10 0.10 76 1007.6
20260505224206 17 329 9.7 11.3 0.00 0.10 0.10 74 1007.3
20260505223704 18 2 11.3 14.5 0.00 0.10 0.10 73 1007.3
20260505223200 18 343 8.0 9.7 0.00 0.10 0.10 73 1007.3
20260505222656 18 310 6.4 9.7 0.00 0.10 0.10 72 1006.9
20260505222152 18 248 4.8 8.0 0.00 0.10 0.10 72 1006.9
20260505221650 19 350 9.7 12.9 0.00 0.10 0.10 70 1006.9
20260505221146 19 336 8.0 12.9 0.00 0.10 0.10 69 1006.9
20260505220643 19 308 1.6 1.6 0.00 0.10 0.10 68 1006.6
20260505220141 19 243 3.2 4.8 0.00 0.10 0.10 68 1006.6
20260505215638 20 346 8.0 11.3 0.00 0.10 0.10 68 1006.1
20260505215136 20 311 1.6 3.2 0.00 0.10 0.10 67 1006.1
20260505214634 21 334 8.0 9.7 0.00 0.10 0.10 64 1005.8
20260505214131 21 280 3.2 4.8 0.00 0.10 0.10 53 1006.1
20260505213629 21 205 6.4 8.0 0.00 0.10 0.10 53 1005.8
20260505213125 21 243 3.2 4.8 0.00 0.10 0.10 53 1005.8
20260505212621 21 256 4.8 4.8 0.00 0.10 0.10 53 1006.1
20260505212119 22 321 1.6 1.6 0.00 0.10 0.10 54 1005.8
20260505211615 22 211 1.6 3.2 0.00 0.10 0.10 53 1006.1
20260505211113 22 217 9.7 11.3 0.00 0.10 0.10 52 1005.8
20260505210609 22 209 8.0 12.9 0.00 0.10 0.10 52 1005.5
20260505210106 22 251 3.2 3.2 0.00 0.10 0.10 57 1005.8
20260505205604 22 263 3.2 3.2 0.00 0.10 0.10 59 1005.5
20260505205101 21 245 1.6 1.6 0.00 0.10 0.10 57 1005.5
20260505204558 21 253 3.2 4.8 0.00 0.10 0.10 63 1005.5
20260505204056 21 246 3.2 3.2 0.00 0.10 0.10 64 1005.8
20260505203552 21 295 3.2 3.2 0.00 0.10 0.10 66 1005.5
20260505203049 21 277 1.6 3.2 0.00 0.10 0.10 67 1005.8
20260505202545 20 351 3.2 3.2 0.00 0.10 0.10 68 1005.8
20260505202041 20 338 8.0 9.7 0.00 0.10 0.10 67 1005.8
20260505201538 20 303 3.2 3.2 0.00 0.10 0.10 67 1005.8
20260505201036 20 322 4.8 8.0 0.00 0.10 0.10 67 1005.8
20260505200534 20 311 3.2 8.0 0.00 0.10 0.10 67 1006.1
20260505200030 20 244 0.0 1.6 0.00 0.10 0.10 66 1006.1
20260505195526 21 263 3.2 3.2 0.00 0.10 0.10 62 1006.1
20260505195024 21 206 3.2 4.8 0.00 0.10 0.10 62 1006.6
20260505194521 21 237 3.2 3.2 0.00 0.10 0.10 61 1006.6
20260505194016 20 263 0.0 1.6 0.00 0.10 0.10 63 1006.6
20260505193514 21 267 4.8 8.0 0.00 0.10 0.10 61 1006.9
20260505193011 21 262 4.8 4.8 0.00 0.10 0.10 56 1006.6
20260505192509 21 277 11.3 16.1 0.00 0.10 0.10 55 1005.8
20260505192007 22 223 6.4 9.7 0.00 0.10 0.10 57 1005.8
20260505191505 21 287 4.8 9.7 0.00 0.10 0.10 56 1005.8
20260505191002 21 174 8.0 11.3 0.00 0.10 0.10 57 1006.1
20260505190457 21 233 3.2 3.2 0.00 0.10 0.10 58 1005.8
20260505185952 21 255 12.9 20.9 0.00 0.10 0.10 58 1005.8
20260505185450 21 243 11.3 14.5 0.00 0.10 0.10 58 1006.1
20260505184946 21 205 8.0 9.7 0.00 0.10 0.10 58 1005.8
20260505184443 21 248 6.4 8.0 0.00 0.10 0.10 58 1006.1
20260505183939 21 263 4.8 8.0 0.00 0.10 0.10 58 1005.8
20260505183437 21 215 3.2 3.2 0.00 0.10 0.10 58 1006.1
20260505182933 21 267 0.0 0.0 0.00 0.10 0.10 58 1006.1
20260505182430 21 202 6.4 8.0 0.00 0.10 0.10 57 1005.8
20260505181926 21 212 4.8 4.8 0.00 0.10 0.10 57 1006.1
20260505181424 21 240 4.8 8.0 0.00 0.10 0.10 58 1006.1
20260505180921 22 193 6.4 9.7 0.00 0.10 0.10 56 1005.8
20260505180417 22 195 3.2 4.8 0.00 0.10 0.10 57 1005.8
20260505175914 23 217 6.4 9.7 0.00 0.10 0.10 61 1005.5
20260505175410 21 242 6.4 9.7 0.00 0.10 0.10 66 1005.5
20260505174906 21 237 4.8 4.8 0.00 0.10 0.10 65 1005.5
20260505174404 21 228 4.8 8.0 0.00 0.10 0.10 64 1005.5
20260505173900 20 254 0.0 0.0 0.00 0.10 0.10 68 1005.8
20260505173356 20 241 1.6 3.2 0.00 0.10 0.10 69 1006.1
20260505172854 19 230 1.6 1.6 0.00 0.10 0.10 75 1006.1
20260505172352 18 231 1.6 1.6 0.00 0.10 0.10 76 1006.6
20260505171851 17 218 8.0 9.7 0.13 0.10 0.10 76 1006.6
20260505171348 17 217 3.2 3.2 0.13 0.10 0.10 77 1006.6
20260505170844 17 241 0.0 1.6 0.00 0.08 0.08 79 1006.6
20260505170342 17 247 1.6 3.2 0.00 0.08 0.08 79 1006.6
20260505165837 17 265 6.4 8.0 0.00 0.08 0.08 76 1006.9
20260505165332 18 310 4.8 8.0 0.00 0.08 0.08 74 1006.9
20260505164828 20 328 3.2 3.2 0.00 0.08 0.08 72 1006.6
20260505164325 21 272 1.6 3.2 0.00 0.08 0.08 61 1006.6
20260505163824 21 252 3.2 3.2 0.00 0.08 0.08 57 1006.1
20260505163322 21 120 3.2 3.2 0.00 0.08 0.08 57 1005.8
20260505162820 21 256 6.4 9.7 0.00 0.08 0.08 57 1006.1
20260505162316 21 238 3.2 4.8 0.00 0.08 0.08 58 1005.8
20260505161813 21 260 4.8 4.8 0.00 0.08 0.08 58 1006.1
20260505161310 21 239 4.8 8.0 0.00 0.08 0.08 57 1005.8
20260505160808 21 210 6.4 12.9 0.00 0.08 0.08 55 1006.1
20260505160306 21 227 1.6 3.2 0.00 0.08 0.08 57 1006.1
20260505153244 21 214 6.4 8.0 0.00 0.08 0.08 59 1005.8
20260505152742 21 205 3.2 3.2 0.00 0.08 0.08 58 1005.5
20260505152238 20 264 3.2 3.2 0.00 0.08 0.08 59 1005.5
20260505151732 20 213 4.8 8.0 0.00 0.08 0.08 59 1005.5
20260505151230 20 252 4.8 9.7 0.00 0.08 0.08 60 1005.8
20260505150726 20 212 9.7 14.5 0.00 0.08 0.08 59 1005.8
20260505150223 20 196 6.4 8.0 0.00 0.08 0.08 59 1006.1
20260505140651 21 221 6.4 8.0 0.00 0.08 0.08 61 1005.5
20260505140148 20 260 4.8 4.8 0.00 0.08 0.08 61 1005.5
20260505130112 20 195 9.7 14.5 0.00 0.08 0.08 66 1005.5
20260505124601 20 208 8.0 12.9 0.00 0.08 0.08 65 1005.5
20260505124057 19 221 11.3 16.1 0.00 0.08 0.08 65 1005.5
20260505123554 20 219 3.2 8.0 0.00 0.08 0.08 65 1005.5
20260505123050 20 264 3.2 4.8 0.00 0.08 0.08 65 1005.5
20260505122547 19 159 6.4 12.9 0.00 0.08 0.08 65 1005.1
20260505122044 19 244 11.3 12.9 0.00 0.08 0.08 65 1005.5
20260505121541 18 209 8.0 12.9 0.00 0.08 0.08 68 1005.5
20260505121038 18 212 6.4 9.7 0.00 0.08 0.08 67 1005.5
20260505120534 18 225 9.7 11.3 0.00 0.08 0.08 69 1005.5
20260505120030 17 242 9.7 16.1 0.00 0.08 0.08 70 1005.5
20260505115524 17 183 8.0 11.3 0.00 0.08 0.08 71 1005.5
20260505115022 18 196 4.8 4.8 0.00 0.08 0.08 72 1005.8
20260505114519 17 206 3.2 3.2 0.00 0.08 0.08 73 1006.1
20260505114015 17 204 3.2 3.2 0.00 0.08 0.08 75 1005.5
20260505113512 16 223 1.6 1.6 0.00 0.08 0.08 77 1005.8
20260505113008 16 221 0.0 1.6 0.00 0.08 0.08 78 1005.8
20260505112504 16 221 3.2 3.2 0.00 0.08 0.08 78 1005.5
20260505112002 16 223 4.8 4.8 0.00 0.08 0.08 78 1005.5
20260505111456 16 228 3.2 3.2 0.00 0.08 0.08 78 1005.5
20260505110953 16 216 6.4 9.7 0.00 0.08 0.08 78 1005.5
20260505110449 16 194 3.2 3.2 0.00 0.08 0.08 79 1005.5
20260505101920 15 238 6.4 8.0 0.00 0.08 0.08 83 1005.1
20260505101415 15 219 3.2 3.2 0.00 0.08 0.08 84 1004.8
20260505100911 15 224 4.8 4.8 0.00 0.08 0.08 83 1004.8
20260505100408 15 212 1.6 1.6 0.00 0.08 0.08 84 1004.8
20260505095903 15 246 3.2 3.2 0.00 0.08 0.08 84 1004.8
20260505095401 14 186 1.6 3.2 0.00 0.08 0.08 85 1005.1
20260505094857 14 242 1.6 3.2 0.00 0.08 0.08 86 1005.1
20260505094354 14 217 4.8 4.8 0.00 0.08 0.08 86 1004.8
20260505093849 15 213 4.8 4.8 0.00 0.08 0.08 86 1004.8
20260505093347 14 239 3.2 3.2 0.00 0.08 0.08 86 1004.8
20260505092844 14 196 1.6 3.2 0.00 0.08 0.08 86 1004.8
20260505092342 14 201 6.4 8.0 0.00 0.08 0.08 86 1004.8
20260505091839 15 222 1.6 1.6 0.00 0.08 0.08 86 1004.8
20260505091337 15 236 1.6 1.6 0.00 0.08 0.08 85 1005.1
20260505090835 15 210 1.6 3.2 0.00 0.08 0.08 85 1005.1
20260505090333 15 238 3.2 4.8 0.00 0.08 0.08 85 1004.8
20260505085830 15 214 3.2 4.8 0.00 0.08 0.08 84 1005.1
20260505085328 15 55 3.2 4.8 0.00 0.08 0.08 84 1004.8
20260505084825 15 221 0.0 1.6 0.00 0.08 0.08 84 1005.1
20260505084324 15 233 8.0 9.7 0.00 0.08 0.08 83 1005.1
20260505083820 15 189 11.3 14.5 0.18 0.08 0.08 83 1005.5
20260505083318 15 240 6.4 9.7 0.18 0.08 0.08 83 1005.5
20260505082814 15 102 4.8 8.0 0.00 0.05 0.05 80 1005.5
20260505082311 13 231 1.6 3.2 0.00 0.05 0.05 90 1005.5
20260505081807 11 209 4.8 4.8 0.00 0.05 0.05 99 1005.5
20260505081304 11 233 0.0 0.0 0.00 0.05 0.05 99 1005.1
20260505080801 11 242 0.0 0.0 0.00 0.05 0.05 99 1005.1
20260505080256 11 244 0.0 0.0 0.00 0.05 0.05 99 1004.8
20260505075752 10 245 0.0 0.0 0.00 0.05 0.05 99 1004.8
20260505075250 10 252 0.0 0.0 0.00 0.05 0.05 99 1005.1
20260505074747 10 254 0.0 0.0 0.00 0.05 0.05 99 1005.1
20260505074244 11 244 0.0 0.0 0.00 0.05 0.05 99 1004.8
20260505073741 11 243 0.0 0.0 0.00 0.05 0.05 99 1004.8
20260505073239 11 242 1.6 1.6 0.00 0.05 0.05 99 1005.1
20260505072735 11 246 0.0 0.0 0.00 0.05 0.05 99 1005.1
20260505072232 11 244 0.0 0.0 0.00 0.05 0.05 99 1005.1
20260505071727 11 250 0.0 0.0 0.00 0.05 0.05 99 1004.8
20260505071224 11 242 0.0 0.0 0.00 0.05 0.05 99 1005.1
20260505070722 11 238 0.0 0.0 0.00 0.05 0.05 99 1004.8
20260505070218 11 246 0.0 0.0 0.00 0.05 0.05 99 1005.1
20260505065714 11 285 0.0 0.0 0.00 0.05 0.05 99 1004.8
20260505065211 12 262 1.6 1.6 0.00 0.05 0.05 99 1005.1
20260505064708 12 324 0.0 0.0 0.00 0.05 0.05 99 1004.8
20260505064206 12 226 0.0 0.0 0.00 0.05 0.05 99 1004.8
20260505063703 12 223 0.0 0.0 0.00 0.05 0.05 99 1005.1
20260505063159 11 303 1.6 1.6 0.00 0.05 0.05 99 1005.5
20260505062655 11 338 3.2 4.8 0.00 0.05 0.05 99 1005.5
20260505062153 11 302 1.6 1.6 0.00 0.05 0.05 99 1005.1
20260505061650 11 249 0.0 0.0 0.00 0.05 0.05 99 1005.1
20260505061148 11 249 1.6 3.2 0.00 0.05 0.05 99 1005.1
20260505060645 11 236 0.0 1.6 0.30 0.05 0.05 99 1005.1
20260505060142 11 236 1.6 1.6 0.30 0.05 0.05 99 1005.1
20260505055637 11 222 1.6 1.6 0.00 0.00 0.00 99 1005.5
20260505055134 11 244 0.0 1.6 0.00 0.00 0.00 99 1005.5
20260505054632 11 252 0.0 0.0 0.00 0.00 0.00 99 1005.1
20260505054130 11 253 0.0 0.0 0.00 0.00 0.00 99 1005.1
20260505053627 11 237 0.0 0.0 0.00 0.00 0.00 99 1005.5
20260505053123 11 241 0.0 0.0 0.00 0.00 0.00 99 1005.5
20260505052620 11 237 0.0 0.0 0.00 0.00 0.00 99 1005.5
20260505052117 11 244 0.0 0.0 0.00 0.00 0.00 99 1005.5
20260505051614 11 243 0.0 0.0 0.00 0.00 0.00 99 1005.8
20260505051112 11 244 0.0 0.0 0.00 0.00 0.00 99 1005.5
20260505050610 11 241 0.0 0.0 0.00 0.00 0.00 99 1005.5
20260505050108 11 243 0.0 0.0 0.00 0.00 0.00 99 1005.8